User: anonymous   Login
Location: Fort Wayne
(41.1310°N, 85.1290°W)
Time: 17:51:56
(UTC-04:00)
Language:

Gbstr 26 Del rocket - Orbit

View from above orbital plane
View from above orbital plane
View from above satellite
View from above satellite

Ground track
Ground track

The orbit data is extracted from the following two-line orbital elements,

1 25876U 99041E   17082.77926183 +.00000227 +00000-0 +80617-4 0  9999
2 25876 051.7635 293.8084 0532209 139.0852 225.1314 14.04007170902609
Epoch (UTC): 23 March 2017 18:42:08
Eccentricity: 0.0532209
inclination: 51.7635°
perigee height: 493 km
apogee height: 1266 km
right ascension of ascending node: 293.8084°
argument of perigee: 139.0852°
revolutions per day: 14.04007170
mean anomaly at epoch: 225.1314°
orbit number at epoch: 90260

The dashed part of the orbit path shows where the satellite is in the earth's shadow,  

DLR